Theta_e
303 307 314 313 312 311 315 317 315 316 317 310 311 323 328 315 330 333 316 320 322 323 323 324 326 329 325 324 324 324 325 324 325 325 325 326 326 327 328 329 330 335 335 336 337 339 338 338 336
310 315 315 307 311 313 312 312 314 314 311 307 307 309 313 320 310 313 317 319 320 320 320 321 322 322 321 321 320 320 320 319 320 320 320 320 321 322 323 325 327 328 330 331 333 334 334 336 337
313 315 311 310 308 311 312 310 309 313 307 311 308 305 309 312 311 315 316 317 317 316 316 317 318 318 318 318 317 317 315 315 315 316 316 315 313 311 312 313 316 319 322 323 325 328 329 330 334
313 311 304 310 310 308 310 312 313 311 310 308 306 309 305 307 313 312 316 315 314 314 314 315 316 316 315 316 315 314 313 309 307 306 308 306 306 305 305 308 310 313 315 317 318 320 324 328 329
309 302 308 310 309 308 307 311 311 313 311 309 308 308 308 307 307 314 314 312 311 312 312 313 314 314 314 313 312 311 310 304 302 301 300 300 302 301 300 304 308 310 311 312 313 313 314 316 326
307 301 305 308 306 306 309 309 311 312 309 307 307 308 308 305 311 313 312 310 310 309 308 306 307 307 309 309 307 306 304 300 299 298 298 298 298 298 299 301 305 306 308 308 309 309 309 307 307
307 305 306 305 306 308 309 306 309 310 309 309 304 308 304 306 311 312 310 308 308 306 302 301 300 300 299 299 299 299 299 298 298 297 297 296 296 296 297 298 300 303 303 304 305 305 304 302 301
304 304 307 305 306 308 304 304 302 306 305 303 305 308 308 303 310 310 308 306 303 301 300 300 299 299 299 299 298 298 298 298 298 297 297 296 295 295 295 296 296 298 298 300 301 300 299 299 299
301 305 305 306 305 307 302 305 302 301 301 301 302 305 304 306 308 306 303 301 300 300 300 299 299 299 299 299 298 298 298 298 297 297 297 295 295 294 294 294 294 294 295 295 296 297 297 298 298
303 303 305 302 301 303 302 303 302 303 302 302 303 303 302 306 305 302 300 300 300 300 300 300 299 299 299 299 298 298 298 298 297 297 296 295 294 294 293 293 293 293 294 294 294 295 295 296 297
303 302 302 302 304 301 302 302 300 302 304 301 301 303 300 302 302 301 300 301 301 301 300 300 299 299 299 299 299 298 297 297 297 297 296 295 294 294 293 293 293 293 293 294 294 294 294 294 295
304 302 302 302 301 301 302 300 301 300 302 299 299 302 301 300 300 300 300 301 301 301 301 300 300 299 299 299 298 298 297 297 297 297 296 295 294 294 293 292 292 292 293 293 293 294 294 294 295
303 302 301 301 301 301 301 300 300 298 298 298 301 302 301 300 300 301 301 302 302 301 301 301 300 300 299 299 298 298 297 297 296 296 295 295 294 294 293 292 291 292 293 293 293 293 293 293 293
302 301 301 302 302 302 302 301 300 299 299 297 301 302 301 300 300 300 301 301 301 302 301 301 301 300 300 299 298 298 297 296 296 295 295 294 294 293 293 291 291 292 292 292 292 292 292 293 293
301 302 303 302 302 301 300 301 299 298 298 299 297 301 301 300 301 301 302 302 302 302 302 302 302 301 300 300 299 298 297 296 296 295 295 294 294 293 292 291 291 292 292 292 292 292 292 292 292
302 303 303 303 300 302 300 304 302 299 299 299 298 296 300 301 301 302 302 302 302 302 302 302 302 301 301 300 299 297 297 296 295 295 295 294 294 293 292 291 291 291 291 291 291 291 291 291 291
301 301 305 304 300 300 300 302 302 299 299 298 297 296 296 298 300 302 303 303 303 303 303 304 303 301 300 299 298 297 296 296 295 295 294 294 293 292 291 290 291 291 291 291 291 291 290 290 290
304 301 302 303 300 299 301 302 302 300 299 298 297 297 296 297 298 302 304 304 304 304 304 303 302 301 300 299 298 297 296 296 295 294 294 294 293 291 290 290 290 290 290 291 290 290 290 289 289
301 302 303 302 299 299 300 298 300 300 297 297 296 295 296 296 297 299 300 303 303 303 303 303 302 300 299 298 297 297 296 295 295 295 294 293 292 290 289 290 290 290 290 289 289 289 288 288 289
302 301 300 300 299 298 296 297 298 296 296 296 297 295 294 294 296 297 299 300 302 303 302 302 301 300 299 298 298 296 295 295 295 295 294 293 291 289 289 290 290 289 289 289 288 288 287 288 289
300 301 300 300 298 296 293 297 297 296 297 298 298 295 294 294 296 296 297 299 300 301 302 301 300 299 298 298 296 295 295 295 295 295 294 292 289 289 289 289 289 289 288 287 287 287 287 288 289
302 298 299 299 294 295 293 298 297 296 296 297 297 295 295 296 296 295 295 297 299 300 300 300 299 299 298 297 296 295 295 294 295 294 292 291 288 289 289 289 289 288 287 287 287 286 287 287 288
300 297 297 294 288 290 292 290 296 296 299 298 296 296 296 296 295 295 295 297 298 299 299 299 298 297 297 297 296 296 295 295 294 293 291 288 288 289 289 289 288 287 287 287 287 287 287 287 288
296 295 293 290 285 292 286 290 299 300 300 296 296 295 295 295 295 295 296 296 297 298 298 297 297 297 296 296 296 296 295 294 294 292 289 288 289 289 289 288 287 286 286 287 287 287 287 288 288
294 289 291 295 293 298 279 291 299 299 297 296 294 293 293 293 293 292 293 295 296 297 297 296 295 295 295 294 295 295 295 294 292 290 287 288 288 289 288 287 286 286 286 287 287 287 287 288 288
296 289 293 292 294 294 280 292 299 296 294 292 292 291 293 293 292 291 293 295 296 296 296 295 295 295 294 293 293 294 293 292 291 287 288 288 288 287 287 286 286 286 286 287 287 287 287 288 288
293 289 290 284 275 286 289 292 295 297 292 293 293 292 292 292 292 291 292 294 295 295 295 294 294 294 294 292 292 292 292 291 288 288 288 288 287 286 286 285 285 286 286 287 287 287 288 288 288
291 290 291 286 291 290 290 282 296 294 293 292 292 290 289 289 289 289 291 293 294 294 294 294 294 294 294 292 291 291 291 288 287 288 288 287 286 286 285 285 285 285 286 286 287 287 288 288 288
290 288 287 288 290 291 289 295 288 288 285 287 288 287 283 284 286 287 290 293 292 293 294 295 294 294 293 291 290 290 288 287 287 287 287 287 286 285 285 285 285 285 286 286 286 286 286 287 287
292 289 292 293 289 286 290 294 288 285 281 277 286 286 285 281 284 285 290 290 291 293 293 295 294 294 293 290 289 289 287 287 287 287 287 287 286 285 285 285 285 285 285 285 285 285 286 286 286
Wind_Speed
5 4 2 5 3 4 3 5 2 1 2 3 2 2 5 3 2 4 11 13 17 17 14 13 13 10 14 15 16 16 16 16 16 16 13 13 12 12 11 10 8 12 11 7 10 10 7 5 4
3 3 4 3 4 1 5 3 5 3 4 6 4 2 3 2 3 5 11 16 16 16 15 15 14 14 15 16 15 16 15 16 16 15 15 15 13 11 11 11 9 8 8 7 6 7 7 7 6
5 5 4 4 3 5 4 4 4 1 6 2 3 4 1 3 3 15 12 18 18 18 17 17 18 17 16 15 16 16 16 16 16 16 15 14 12 11 11 9 9 10 12 12 10 4 5 6 4
3 4 4 4 4 5 5 3 2 5 1 2 3 4 2 4 10 9 23 19 19 18 16 17 16 16 16 16 16 15 15 14 13 13 12 12 12 10 10 10 10 12 13 13 13 11 8 7 7
4 3 3 1 4 4 4 2 6 4 4 2 0 2 2 3 4 23 22 20 20 19 17 17 16 16 15 15 15 15 15 13 13 12 10 10 10 10 9 10 11 12 13 13 13 13 12 8 7
3 3 3 3 4 3 2 2 2 2 2 3 3 4 2 3 17 24 21 19 17 19 17 16 16 15 14 14 13 13 12 12 11 11 10 10 10 9 9 10 12 12 13 13 13 13 12 10 10
5 4 4 4 3 2 1 1 2 3 3 2 7 4 0 4 18 22 19 17 16 15 14 13 12 12 11 10 9 9 9 10 9 10 10 10 11 11 11 11 12 14 13 13 13 13 12 12 12
4 4 3 3 2 3 2 1 1 1 2 4 2 3 4 7 23 20 18 17 15 14 12 11 10 9 9 9 7 7 8 8 9 10 11 11 12 12 12 11 13 13 14 14 14 13 13 14 14
3 4 2 3 5 1 4 1 2 1 4 1 1 3 3 24 26 22 19 17 16 14 12 10 9 8 8 8 7 5 6 7 8 9 10 11 12 12 12 13 13 14 14 14 15 15 15 15 15
4 4 7 0 1 0 3 1 2 0 1 2 1 3 12 29 28 24 22 20 19 17 14 11 8 8 6 6 5 4 4 5 7 8 10 11 12 12 13 13 14 14 15 15 15 15 16 16 17
2 4 2 1 1 0 2 1 4 1 4 5 6 5 11 17 21 21 23 26 24 19 15 12 10 8 6 4 3 2 3 4 5 7 9 10 11 11 12 12 13 14 16 16 16 17 18 18 19
1 1 1 1 2 1 1 4 4 4 3 1 4 6 13 13 18 21 25 25 22 20 17 14 11 9 6 4 3 1 1 2 4 6 8 10 11 12 13 14 15 16 17 17 18 19 20 21 21
2 1 2 1 2 1 4 4 4 7 7 3 3 8 12 11 15 19 24 23 22 21 19 15 13 11 8 6 4 2 2 2 3 5 7 9 11 13 14 15 15 16 17 18 20 21 23 24 25
1 2 1 3 3 3 3 2 4 2 2 4 6 8 9 10 19 16 21 25 25 23 20 17 15 12 9 7 5 4 3 3 4 6 7 9 11 13 15 16 15 17 18 19 21 24 26 27 28
3 1 0 2 2 2 2 4 7 6 3 3 7 7 7 11 14 23 30 29 28 25 21 19 17 15 11 8 6 6 5 5 5 7 8 10 12 15 16 16 17 18 19 21 23 26 28 31 32
4 4 2 2 6 2 2 7 2 1 2 7 6 7 7 10 20 25 26 28 27 24 23 21 20 18 14 10 7 7 7 7 7 8 10 11 14 15 17 17 18 19 20 23 25 28 31 32 33
7 1 1 2 5 4 3 6 3 2 2 7 7 7 7 8 12 24 27 26 27 25 23 23 23 20 15 11 8 8 9 8 8 9 10 12 14 15 16 17 17 19 22 23 26 27 27 31 32
2 2 2 3 6 5 4 13 13 7 8 10 9 8 8 8 11 24 27 26 23 22 23 23 24 20 16 12 11 11 11 10 10 10 12 13 15 15 16 16 18 19 23 24 25 25 27 26 28
2 1 2 2 4 4 3 9 19 7 7 9 8 8 9 10 12 16 19 25 23 21 21 21 23 21 18 15 13 13 13 11 10 10 12 14 15 15 15 17 19 21 23 24 24 25 26 25 22
5 2 3 4 4 3 6 17 18 7 5 5 5 7 8 5 6 9 15 21 23 22 21 20 21 21 18 17 14 11 10 9 10 12 13 14 14 14 16 18 20 21 23 24 23 20 21 17 12
3 3 3 3 7 3 8 8 6 3 4 3 2 4 5 6 6 4 11 17 20 20 21 19 18 17 16 15 15 14 13 13 13 13 14 12 13 14 15 17 19 20 21 21 19 18 16 16 16
2 3 2 3 5 2 5 4 8 5 9 5 6 4 5 1 2 3 8 14 18 18 16 15 14 15 15 16 17 17 17 16 15 14 14 14 14 15 17 18 19 20 21 20 17 17 16 16 15
1 3 2 3 4 3 7 4 8 4 6 5 6 5 4 2 1 4 7 12 13 14 13 12 13 14 14 16 18 19 19 18 16 15 16 15 15 16 18 19 19 18 16 18 18 19 17 16 18
2 2 5 3 3 3 3 3 6 3 3 5 4 5 5 4 2 3 6 9 11 12 14 13 12 13 13 15 17 19 18 17 16 16 16 16 17 18 18 18 17 15 16 18 18 18 18 18 19
6 6 4 6 4 4 1 1 10 6 6 4 7 8 7 5 5 5 7 11 15 18 16 13 12 14 14 15 15 16 17 16 16 16 16 17 18 20 20 18 16 15 16 18 17 18 19 19 20
4 5 5 4 2 5 2 5 5 4 6 6 5 6 6 6 5 6 10 15 18 15 15 15 16 18 17 16 17 18 17 16 15 15 15 16 18 20 19 16 14 16 16 18 18 18 20 20 21
2 3 2 7 2 3 3 7 11 3 6 8 6 7 7 7 7 8 13 16 18 19 19 18 19 20 19 18 16 17 17 16 15 14 14 16 16 16 15 14 16 15 15 16 17 19 20 21 22
4 2 4 3 2 4 5 5 5 7 8 10 10 9 9 8 9 9 15 20 22 21 20 19 18 20 19 19 18 18 17 16 15 14 14 14 13 13 13 13 14 15 15 16 18 19 20 21 23
2 2 4 3 3 4 2 6 7 7 3 6 9 8 6 8 8 7 18 27 26 23 21 19 20 19 21 22 19 18 17 15 14 14 13 12 11 10 11 12 13 14 16 16 17 19 20 20 22
3 6 4 4 5 2 2 8 2 6 5 4 9 7 6 5 8 8 21 27 31 31 28 23 23 22 24 23 21 19 17 17 16 14 12 10 10 9 10 11 12 14 16 17 17 20 21 22 22
Wind_Direction
335 335 26 37 47 64 257 249 281 244 171 307 39 165 160 65 179 195 147 133 133 134 125 107 106 106 94 91 86 87 79 75 72 71 76 75 70 65 59 54 61 53 46 43 36 31 37 22 355
36 80 63 77 108 145 265 245 237 229 144 136 62 2 62 111 100 117 131 140 141 130 125 117 107 100 92 88 86 83 81 75 71 69 66 64 64 60 54 52 51 49 53 49 44 26 13 9 1
91 62 88 116 130 198 222 228 218 50 142 43 83 40 92 151 59 148 147 146 137 128 123 111 101 98 95 91 85 84 79 75 72 70 67 61 62 58 57 51 42 36 36 33 25 1 339 329 324
121 37 36 100 218 250 216 299 194 116 42 51 125 74 32 284 159 165 148 146 137 124 120 110 103 98 93 91 85 82 78 78 74 68 63 56 52 47 45 42 37 33 34 31 26 20 359 334 323
61 57 78 157 247 256 257 258 156 149 126 92 97 185 47 24 137 150 150 149 141 131 123 112 104 100 97 93 89 83 75 71 68 65 56 49 45 39 35 34 34 32 31 27 22 20 13 345 302
51 95 80 224 246 254 263 178 153 124 104 148 91 129 159 187 152 154 154 150 146 138 132 124 119 112 104 96 90 84 79 69 63 58 52 47 39 31 22 29 30 26 27 21 18 11 1 343 322
118 97 201 192 234 275 178 351 153 160 135 222 147 130 20 179 166 159 158 154 150 145 138 130 123 122 115 107 97 89 81 70 58 50 44 37 32 30 27 27 25 27 18 16 11 5 349 345 329
110 97 147 238 203 240 6 37 40 135 144 128 146 205 237 189 166 163 162 160 157 153 147 139 129 120 114 107 98 85 78 65 55 45 39 33 31 29 26 24 23 21 17 14 8 359 348 337 330
123 66 198 231 163 235 1 122 13 306 126 104 118 158 293 162 165 164 162 163 161 158 156 152 148 141 126 115 106 93 75 67 51 41 34 31 28 26 22 20 17 15 11 8 5 359 353 344 335
91 124 221 20 122 210 315 335 323 72 157 242 195 65 144 160 168 168 174 174 174 173 169 169 162 159 144 132 122 102 80 59 43 30 28 24 22 20 18 14 10 7 5 2 359 356 351 343 339
148 182 170 152 35 9 291 267 323 211 239 218 209 159 156 163 175 179 186 187 186 182 180 175 177 174 168 157 147 120 83 53 38 22 18 18 16 12 7 5 2 359 357 354 350 348 348 346 341
113 42 15 127 7 354 277 302 291 215 223 55 233 167 170 175 188 190 191 193 189 189 189 188 189 185 185 190 193 188 53 34 17 7 3 3 3 2 359 357 356 353 352 349 347 346 344 341 338
92 135 47 35 30 22 335 292 275 263 259 256 87 156 184 191 197 199 201 199 195 197 196 196 196 194 199 209 226 240 275 331 349 354 354 353 352 352 351 350 349 348 347 345 343 341 339 336 334
100 79 48 14 357 9 349 298 16 283 7 216 169 198 197 197 195 193 201 205 202 204 205 203 203 204 210 220 238 248 258 294 321 333 344 344 344 343 340 341 342 342 342 341 339 338 336 333 332
115 62 36 31 1 341 2 263 234 254 312 217 222 220 218 221 198 202 207 208 208 209 211 213 211 211 216 224 240 255 265 284 300 315 328 333 334 333 333 334 335 336 335 334 333 333 333 332 331
42 46 30 15 359 2 356 275 261 12 202 255 248 240 226 228 217 218 217 216 215 216 216 217 216 218 219 229 241 254 262 273 291 308 318 322 326 326 327 328 330 331 331 331 331 332 331 330 329
17 198 340 329 36 323 44 279 276 69 16 288 275 263 244 248 236 231 225 221 220 222 221 222 220 219 222 228 240 251 259 274 289 299 308 316 320 321 321 324 327 326 325 327 328 326 329 327 326
286 12 310 277 343 354 291 270 279 266 273 263 267 266 252 243 238 235 230 225 223 224 224 227 218 216 219 227 240 254 263 270 282 294 304 311 316 317 318 319 320 322 321 323 325 325 324 323 324
120 72 307 296 12 337 296 288 287 294 254 267 271 270 264 250 249 242 236 226 222 220 218 218 209 212 218 223 238 253 259 268 276 289 302 309 311 313 314 315 317 319 320 322 322 321 322 323 330
59 75 317 298 17 357 357 296 283 292 252 224 274 291 280 263 217 196 202 205 207 212 208 205 209 215 222 231 245 254 266 272 280 292 302 306 306 309 311 314 316 318 319 320 321 321 321 315 334
49 95 10 261 327 70 324 299 323 313 315 269 262 302 305 257 214 179 173 183 191 196 199 204 209 215 227 239 246 254 261 269 277 291 299 297 302 307 309 311 313 316 319 318 320 322 311 302 308
32 357 34 13 39 278 13 277 299 318 307 285 286 324 331 330 157 150 160 173 180 186 191 198 209 222 235 244 247 249 253 261 276 292 295 299 302 304 309 311 313 313 318 317 315 319 310 296 293
151 31 58 83 91 51 350 68 272 336 322 314 302 289 319 356 122 174 180 183 179 180 188 200 217 232 244 249 251 250 252 261 273 285 291 296 301 305 309 312 311 311 312 313 304 306 298 291 283
69 72 42 59 94 30 255 106 282 259 239 320 338 287 278 272 250 203 185 186 190 192 198 209 228 245 256 257 252 248 247 254 269 280 289 297 302 307 311 312 310 311 312 305 299 297 292 285 281
53 48 342 359 9 224 259 22 248 288 284 275 290 308 266 246 218 211 204 201 200 202 206 215 235 252 261 257 247 242 245 254 266 279 287 294 302 307 310 309 305 301 300 305 299 294 289 287 282
42 128 144 218 286 279 2 241 254 242 297 281 283 301 282 258 262 252 231 218 217 217 222 232 249 260 261 252 245 242 242 250 263 272 280 290 298 303 306 304 302 296 297 298 296 291 288 284 282
269 41 169 99 68 32 273 293 295 329 321 15 318 317 290 268 255 248 249 243 240 236 241 254 260 256 256 250 243 236 239 248 256 265 275 285 294 300 303 300 298 295 295 298 299 295 291 290 286
121 149 36 8 9 306 291 280 239 320 321 343 359 339 325 324 323 313 292 273 260 257 264 264 260 258 257 247 236 235 239 244 250 259 270 281 293 297 302 305 306 302 302 302 299 296 295 292 289
33 13 42 123 135 187 274 266 216 224 236 308 318 329 320 318 305 287 283 284 281 277 273 276 270 263 252 247 232 230 233 240 247 255 266 280 293 299 299 301 304 307 308 305 302 301 299 294 293
164 190 154 129 269 227 179 270 299 222 234 215 295 287 275 254 276 275 288 291 281 268 275 283 280 265 254 244 234 228 228 235 243 252 266 276 287 290 297 298 304 309 307 309 307 304 300 297 293